This is the latest recevied weather packets stored in our database for station/object NO9B. If no packets are shown the sender has not sent any weather packets the latest 1 day(s).
| Time | Temp. | Humidity | Pressure | Rain* | Wind** | Luminosity | Snow |
|---|---|---|---|---|---|---|---|
| 1778084113 | 10.56° C | 40% | 1014.1 hPa | 0 mm | - | 135 W/m² | - |
| 1778079366 | 10.56° C | 38% | 1014 hPa | 0 mm | - | 91 W/m² | - |
| 1778077550 | 10° C | 41% | 1014.1 hPa | 0 mm | - | 77 W/m² | - |
| 1778076644 | 10° C | 40% | 1014 hPa | 0 mm | - | 61 W/m² | - |
| 1778075431 | 9.44° C | 42% | 1013.9 hPa | 0 mm | - | 48 W/m² | - |
| 1778074824 | 8.89° C | 44% | 1013.9 hPa | 0 mm | - | 34 W/m² | - |
| 1778074218 | 8.89° C | 44% | 1013.8 hPa | 0 mm | - | 32 W/m² | - |
| 1778073915 | 8.89° C | 44% | 1013.8 hPa | 0 mm | - | 28 W/m² | - |
| 1778073006 | 7.78° C | 47% | 1013.7 hPa | 0 mm | - | 25 W/m² | - |
| 1778070889 | 5.56° C | 59% | 1013.6 hPa | 0 mm | - | 20 W/m² | - |
| 1778070283 | 5° C | 61% | 1013.4 hPa | 0 mm | - | 19 W/m² | - |
| 1778067863 | 0.56° C | 88% | 1013.1 hPa | 0 mm | - | 13 W/m² | - |
| 1778067259 | 0.56° C | 89% | 1013.1 hPa | 0 mm | - | 11 W/m² | - |
| 1778066955 | 0° C | 89% | 1013.3 hPa | 0 mm | - | 11 W/m² | - |
| 1778066653 | 0° C | 88% | 1013 hPa | 0 mm | - | 10 W/m² | - |
| 1778066350 | 0° C | 88% | 1012.9 hPa | 0 mm | - | 8 W/m² | - |
| 1778065745 | 0° C | 88% | 1012.9 hPa | 0 mm | - | 6 W/m² | - |
| 1778064835 | 0° C | 86% | 1012.7 hPa | 0 mm | - | 3 W/m² | - |
| 1778063928 | 0° C | 85% | 1012.4 hPa | 0 mm | - | 1 W/m² | - |
| 1778062717 | 0° C | 84% | 1012.4 hPa | 0 mm | - | 0 W/m² | - |
| 1778061204 | 0.56° C | 83% | 1012.5 hPa | 0 mm | - | 0 W/m² | - |
| 1778060901 | 0.56° C | 82% | 1012.5 hPa | 0 mm | - | 0 W/m² | - |
| 1778060600 | 0.56° C | 81% | 1012.3 hPa | 0 mm | - | 0 W/m² | - |
| 1778059994 | 0.56° C | 81% | 1012.7 hPa | 0 mm | - | 0 W/m² | - |
| 1778059087 | 1.11° C | 79% | 1012.5 hPa | 0 mm | - | 0 W/m² | - |
* Rain latest hour (hover to see other rain measurements)
** Current wind speed in m/s (hover to see current wind gust speed)